BHE129 ZPPP-ZSNJ

Flight info

Callsign BHE129
Flight time 2h 20m
Altitude 37100
Route NODIB1W NODIB W137 LPS A581 WHA R343 HFE W51 LEGIV W164 OREVO
Aircraft B772/H-SDE2E3FGHIJ5LORVWXY/LB1D1

Departure

Time 2026-05-04 13:26
Airport Kunming Changshui International Airport (ZPPP)

Arrival

Time 2026-05-04 15:47
Airport Nanjing Lukou International Airport (ZSNJ)
Time Latitude Longitude Altitude Speed Heading
2026-05-04 12:04 25.10666 102.93002 6919 ft 0 kts 253°
2026-05-04 13:02 25.10669 102.93012 6920 ft 2 kts 253°
2026-05-04 13:02 25.10673 102.93027 6921 ft 2 kts 253°
2026-05-04 13:02 25.10678 102.93044 6921 ft 2 kts 253°
2026-05-04 13:02 25.10682 102.93059 6921 ft 2 kts 256°
2026-05-04 13:03 25.10683 102.93076 6920 ft 2 kts 286°
2026-05-04 13:03 25.10677 102.93090 6919 ft 2 kts 308°
2026-05-04 13:03 25.10665 102.93102 6919 ft 2 kts 333°
2026-05-04 13:03 25.10659 102.93105 6919 ft 1 kts 343°
2026-05-04 13:04 25.10657 102.93105 6919 ft 0 kts 342°
2026-05-04 13:06 25.10665 102.93102 6919 ft 2 kts 342°
2026-05-04 13:06 25.10695 102.93092 6919 ft 6 kts 342°
2026-05-04 13:06 25.10747 102.93075 6918 ft 9 kts 343°
2026-05-04 13:07 25.10815 102.93043 6918 ft 12 kts 323°
2026-05-04 13:07 25.10878 102.92968 6918 ft 14 kts 310°
2026-05-04 13:07 25.10945 102.92874 6918 ft 16 kts 308°
2026-05-04 13:07 25.10989 102.92812 6918 ft 0 kts 307°
2026-05-04 13:08 25.10994 102.92806 6918 ft 2 kts 308°
2026-05-04 13:08 25.11008 102.92786 6918 ft 5 kts 308°
2026-05-04 13:08 25.11032 102.92752 6918 ft 8 kts 308°
2026-05-04 13:09 25.11075 102.92724 6918 ft 10 kts 352°
2026-05-04 13:09 25.11138 102.92741 6918 ft 12 kts 26°
2026-05-04 13:09 25.11201 102.92789 6918 ft 14 kts 38°
2026-05-04 13:09 25.11270 102.92849 6918 ft 16 kts 39°
2026-05-04 13:10 25.11347 102.92916 6918 ft 18 kts 39°
2026-05-04 13:10 25.11432 102.92990 6918 ft 19 kts 38°
2026-05-04 13:10 25.11523 102.93068 6918 ft 20 kts 38°
2026-05-04 13:11 25.11689 102.93214 6918 ft 7 kts 38°
2026-05-04 13:11 25.11694 102.93218 6918 ft 0 kts 38°
2026-05-04 13:11 25.11702 102.93225 6918 ft 3 kts 38°
2026-05-04 13:11 25.11722 102.93243 6918 ft 6 kts 38°
2026-05-04 13:12 25.11756 102.93272 6918 ft 8 kts 38°
2026-05-04 13:12 25.11801 102.93311 6918 ft 11 kts 38°
2026-05-04 13:12 25.11859 102.93362 6918 ft 13 kts 38°
2026-05-04 13:12 25.11980 102.93468 6918 ft 5 kts 38°
2026-05-04 13:13 25.12050 102.93528 6918 ft 10 kts 38°
2026-05-04 13:13 25.12114 102.93583 6918 ft 13 kts 38°
2026-05-04 13:13 25.12192 102.93652 6918 ft 15 kts 39°
2026-05-04 13:13 25.12283 102.93732 6918 ft 16 kts 38°
2026-05-04 13:14 25.12363 102.93800 6918 ft 15 kts 38°
2026-05-04 13:14 25.12450 102.93876 6918 ft 11 kts 38°
2026-05-04 13:14 25.12521 102.93938 6918 ft 14 kts 38°
2026-05-04 13:14 25.12606 102.94012 6918 ft 16 kts 38°
2026-05-04 13:15 25.12700 102.94093 6918 ft 11 kts 38°
2026-05-04 13:15 25.12753 102.94141 6918 ft 8 kts 38°
2026-05-04 13:15 25.12804 102.94184 6918 ft 8 kts 38°
2026-05-04 13:15 25.12850 102.94224 6918 ft 8 kts 38°
2026-05-04 13:16 25.12888 102.94257 6918 ft 1 kts 39°
2026-05-04 13:16 25.12889 102.94258 6918 ft 0 kts 39°
2026-05-04 13:21 25.12896 102.94263 6918 ft 2 kts 33°
2026-05-04 13:21 25.12920 102.94271 6918 ft 5 kts
2026-05-04 13:21 25.12959 102.94259 6918 ft 8 kts 329°
2026-05-04 13:21 25.12995 102.94223 6918 ft 1 kts 310°
2026-05-04 13:22 25.12995 102.94222 6918 ft 0 kts 309°
2026-05-04 13:22 25.12999 102.94216 6918 ft 2 kts 307°
2026-05-04 13:22 25.13011 102.94194 6918 ft 5 kts 293°
2026-05-04 13:22 25.13006 102.94132 6918 ft 7 kts 233°
2026-05-04 13:23 25.12962 102.94085 6918 ft 8 kts 219°
2026-05-04 13:23 25.12943 102.94068 6918 ft 0 kts 219°
2026-05-04 13:24 25.12943 102.94067 6918 ft 0 kts 219°
2026-05-04 13:25 25.12938 102.94064 6918 ft 2 kts 219°
2026-05-04 13:25 25.12902 102.94031 6918 ft 12 kts 218°
2026-05-04 13:25 25.12678 102.93835 6918 ft 89 kts 218°
2026-05-04 13:26 25.10282 102.91751 8689 ft 173 kts 218°
2026-05-04 13:26 25.09606 102.91013 9424 ft 158 kts 238°
2026-05-04 13:27 25.09099 102.90124 9873 ft 163 kts 236°
2026-05-04 13:27 25.08504 102.89168 10023 ft 187 kts 234°
2026-05-04 13:27 25.06679 102.86466 10042 ft 248 kts 234°
2026-05-04 13:28 25.05563 102.84821 10038 ft 284 kts 234°
2026-05-04 13:28 25.04287 102.82938 10259 ft 319 kts 234°
2026-05-04 13:28 25.02931 102.80940 11021 ft 334 kts 234°
2026-05-04 13:28 25.01704 102.79134 11823 ft 341 kts 235°
2026-05-04 13:29 25.00583 102.77482 12614 ft 345 kts 236°
2026-05-04 13:29 24.99587 102.75928 13319 ft 346 kts 242°
2026-05-04 13:29 24.98853 102.74164 13986 ft 348 kts 254°
2026-05-04 13:29 24.98463 102.71793 14829 ft 350 kts 269°
2026-05-04 13:30 24.98594 102.69840 15552 ft 352 kts 281°
2026-05-04 13:31 25.01197 102.63941 17828 ft 362 kts 300°
2026-05-04 13:31 25.02055 102.62416 18275 ft 369 kts 300°
2026-05-04 13:31 25.02811 102.61098 18644 ft 374 kts 301°
2026-05-04 13:31 25.03605 102.59748 19053 ft 379 kts 302°
2026-05-04 13:32 25.04817 102.57996 19631 ft 385 kts 310°
2026-05-04 13:32 25.06236 102.56479 20218 ft 390 kts 317°
2026-05-04 13:32 25.07955 102.55117 20838 ft 396 kts 326°
2026-05-04 13:33 25.09935 102.54005 21501 ft 402 kts 334°
2026-05-04 13:33 25.12041 102.53226 22128 ft 408 kts 342°
2026-05-04 13:33 25.14233 102.52792 22663 ft 417 kts 350°
2026-05-04 13:33 25.16427 102.52721 23215 ft 426 kts 358°
2026-05-04 13:34 25.18654 102.53002 23728 ft 434 kts
2026-05-04 13:34 25.20932 102.53477 24268 ft 439 kts
2026-05-04 13:34 25.22986 102.53907 24774 ft 441 kts
2026-05-04 13:34 25.28771 102.55019 26130 ft 448 kts
2026-05-04 13:35 25.34690 102.56052 26899 ft 467 kts
2026-05-04 13:35 25.41146 102.57127 28245 ft 472 kts
2026-05-04 13:35 25.44411 102.57661 28932 ft 474 kts
2026-05-04 13:36 25.47698 102.58192 29528 ft 478 kts
2026-05-04 13:36 25.51017 102.58724 29984 ft 485 kts
2026-05-04 13:36 25.54372 102.59261 30437 ft 491 kts
2026-05-04 13:36 25.57770 102.59802 30975 ft 494 kts
2026-05-04 13:37 25.61175 102.60347 31695 ft 493 kts
2026-05-04 13:37 25.64585 102.60892 32535 ft 489 kts
2026-05-04 13:37 25.67941 102.61429 33463 ft 485 kts
2026-05-04 13:37 25.70162 102.61783 34109 ft 482 kts
2026-05-04 13:38 25.74533 102.62505 35299 ft 481 kts
2026-05-04 13:38 25.77777 102.63480 36122 ft 487 kts 13°
2026-05-04 13:38 25.80887 102.65015 36898 ft 494 kts 22°
2026-05-04 13:38 25.83798 102.67075 37404 ft 503 kts 30°
2026-05-04 13:39 25.86521 102.69526 37446 ft 508 kts 34°
2026-05-04 13:39 25.91889 102.74606 37464 ft 505 kts 34°
2026-05-04 13:40 25.97071 102.79491 37465 ft 506 kts 34°
2026-05-04 13:40 26.02389 102.84492 37483 ft 507 kts 34°
2026-05-04 13:41 26.07677 102.89459 37495 ft 506 kts 34°
2026-05-04 13:41 26.12926 102.94389 37501 ft 506 kts 33°
2026-05-04 13:42 26.20924 103.01907 37530 ft 506 kts 33°
2026-05-04 13:42 26.26294 103.06960 37548 ft 506 kts 33°
2026-05-04 13:43 26.31540 103.11901 37518 ft 508 kts 33°
2026-05-04 13:43 26.36929 103.16984 37494 ft 506 kts 33°
2026-05-04 13:44 26.42079 103.21846 37488 ft 508 kts 33°
2026-05-04 13:44 26.46670 103.27271 37482 ft 521 kts 48°
2026-05-04 13:45 26.50000 103.34441 37469 ft 538 kts 66°
2026-05-04 13:45 26.50993 103.38515 37461 ft 553 kts 75°
2026-05-04 13:45 26.51489 103.42703 37469 ft 558 kts 81°
2026-05-04 13:46 26.52149 103.51289 37453 ft 559 kts 81°
2026-05-04 13:46 26.52828 103.59892 37448 ft 558 kts 81°
2026-05-04 13:47 26.53527 103.68474 37427 ft 559 kts 81°
2026-05-04 13:47 26.54238 103.77079 37422 ft 559 kts 81°
2026-05-04 13:48 26.54956 103.85709 37422 ft 559 kts 81°
2026-05-04 13:48 26.55674 103.94344 37420 ft 560 kts 81°
2026-05-04 13:49 26.56388 104.02962 37427 ft 560 kts 81°
2026-05-04 13:49 26.57095 104.11540 37412 ft 560 kts 81°
2026-05-04 13:50 26.57795 104.20080 37423 ft 561 kts 81°
2026-05-04 13:50 26.58494 104.28661 37423 ft 561 kts 81°
2026-05-04 13:51 26.59184 104.37196 37416 ft 562 kts 81°
2026-05-04 13:51 26.59868 104.45715 37411 ft 561 kts 81°
2026-05-04 13:52 26.60870 104.58317 37407 ft 562 kts 81°
2026-05-04 13:53 26.61545 104.66886 37388 ft 563 kts 82°
2026-05-04 13:53 26.62211 104.75401 37386 ft 563 kts 82°
2026-05-04 13:55 26.63899 104.97283 37366 ft 566 kts 82°
2026-05-04 13:55 26.65236 105.04853 37357 ft 557 kts 66°
2026-05-04 13:56 26.66421 105.08282 37411 ft 548 kts 61°
2026-05-04 13:57 26.68236 105.12822 37405 ft 548 kts 60°
2026-05-04 13:59 26.75210 105.30100 37372 ft 552 kts 60°
2026-05-04 14:00 26.77164 105.34968 37373 ft 552 kts 60°
2026-05-04 14:00 26.77520 105.35857 37367 ft 552 kts 60°
2026-05-04 14:02 26.79790 105.41526 37356 ft 552 kts 60°
2026-05-04 14:02 26.81214 105.45089 37355 ft 552 kts 60°
2026-05-04 14:03 26.82719 105.48859 37343 ft 552 kts 60°
2026-05-04 14:03 26.84212 105.52609 37355 ft 541 kts 60°
2026-05-04 14:04 26.85639 105.56205 37316 ft 523 kts 60°
2026-05-04 14:05 26.90618 105.68735 35642 ft 497 kts 60°
2026-05-04 14:05 26.92011 105.72247 35338 ft 488 kts 60°
2026-05-04 14:06 26.93398 105.75739 35325 ft 496 kts 60°
2026-05-04 14:06 26.96209 105.82830 35306 ft 497 kts 59°
2026-05-04 14:07 26.97681 105.86552 35307 ft 497 kts 60°
2026-05-04 14:07 26.98639 105.88977 35302 ft 498 kts 59°
2026-05-04 14:08 27.03145 106.00404 35298 ft 498 kts 59°
2026-05-04 14:09 27.08541 106.12717 35296 ft 494 kts 56°
2026-05-04 14:10 27.13289 106.23027 35306 ft 493 kts 56°
2026-05-04 14:10 27.16426 106.29883 35302 ft 495 kts 56°
2026-05-04 14:11 27.19343 106.36283 35294 ft 494 kts 56°
2026-05-04 14:11 27.23702 106.45864 35284 ft 495 kts 56°
2026-05-04 14:13 27.29887 106.59502 35276 ft 496 kts 56°
2026-05-04 14:13 27.32580 106.65456 35269 ft 496 kts 56°
2026-05-04 14:14 27.34844 106.70467 35247 ft 497 kts 56°
2026-05-04 14:14 27.38520 106.78632 35248 ft 496 kts 56°
2026-05-04 14:15 27.43941 106.90748 35255 ft 496 kts 56°
2026-05-04 14:16 27.51676 107.07962 35262 ft 496 kts 56°
2026-05-04 14:17 27.54862 107.14997 35256 ft 516 kts 56°
2026-05-04 14:17 27.56449 107.18503 35251 ft 529 kts 56°
2026-05-04 14:18 27.60489 107.27450 35253 ft 556 kts 56°
2026-05-04 14:19 27.67836 107.43806 35250 ft 556 kts 56°
2026-05-04 14:19 27.71325 107.51592 35253 ft 557 kts 57°
2026-05-04 14:20 27.74820 107.59401 35252 ft 558 kts 56°
2026-05-04 14:20 27.78112 107.66773 35242 ft 558 kts 57°
2026-05-04 14:21 27.82760 107.77200 35241 ft 559 kts 57°
2026-05-04 14:21 27.86238 107.84845 35226 ft 560 kts 56°
2026-05-04 14:22 27.89529 107.92038 35216 ft 559 kts 56°
2026-05-04 14:22 27.91798 107.97006 35209 ft 560 kts 56°
2026-05-04 14:23 27.97123 108.08698 35203 ft 560 kts 56°
2026-05-04 14:24 28.00643 108.16449 35204 ft 559 kts 56°
2026-05-04 14:24 28.04180 108.24254 35198 ft 558 kts 56°
2026-05-04 14:25 28.07651 108.31927 35198 ft 558 kts 56°
2026-05-04 14:25 28.12949 108.43669 35206 ft 558 kts 56°
2026-05-04 14:26 28.16475 108.51499 35209 ft 560 kts 56°
2026-05-04 14:26 28.20005 108.59356 35231 ft 563 kts 56°
2026-05-04 14:27 28.23522 108.67199 35231 ft 562 kts 57°
2026-05-04 14:27 28.27042 108.75069 35236 ft 560 kts 57°
2026-05-04 14:28 28.30561 108.82945 35226 ft 562 kts 57°
2026-05-04 14:28 28.34047 108.90764 35207 ft 562 kts 57°
2026-05-04 14:29 28.41005 109.06419 35180 ft 562 kts 57°
2026-05-04 14:30 28.44506 109.14316 35176 ft 564 kts 57°
2026-05-04 14:31 28.49742 109.26189 35168 ft 564 kts 57°
2026-05-04 14:32 28.56736 109.42115 35177 ft 564 kts 57°
2026-05-04 14:32 28.59859 109.50343 35182 ft 570 kts 63°
2026-05-04 14:33 28.62735 109.58761 35178 ft 571 kts 63°
2026-05-04 14:33 28.65603 109.67169 35156 ft 571 kts 63°
2026-05-04 14:34 28.68576 109.75488 35148 ft 573 kts 63°
2026-05-04 14:34 28.71582 109.83852 35158 ft 572 kts 62°
2026-05-04 14:35 28.74575 109.92207 35176 ft 571 kts 63°
2026-05-04 14:35 28.77563 110.00576 35195 ft 569 kts 62°
2026-05-04 14:36 28.80539 110.08929 35192 ft 572 kts 63°
2026-05-04 14:36 28.83520 110.17322 35185 ft 571 kts 63°
2026-05-04 14:37 28.86484 110.25685 35181 ft 571 kts 63°
2026-05-04 14:37 28.89465 110.34116 35180 ft 573 kts 63°
2026-05-04 14:38 28.92422 110.42503 35178 ft 573 kts 63°
2026-05-04 14:38 28.95384 110.50920 35183 ft 572 kts 63°
2026-05-04 14:39 28.98354 110.59379 35181 ft 575 kts 63°
2026-05-04 14:39 29.01305 110.67810 35154 ft 566 kts 63°
2026-05-04 14:40 29.04105 110.75824 35142 ft 527 kts 62°
2026-05-04 14:40 29.05453 110.79623 35142 ft 520 kts 62°
2026-05-04 14:40 29.08221 110.87406 35143 ft 528 kts 63°
2026-05-04 14:41 29.10916 110.95022 35150 ft 526 kts 63°
2026-05-04 14:42 29.16389 111.10542 35148 ft 526 kts 63°
2026-05-04 14:42 29.19096 111.18248 35142 ft 526 kts 63°
2026-05-04 14:43 29.21831 111.26049 35134 ft 527 kts 63°
2026-05-04 14:43 29.24521 111.33744 35135 ft 526 kts 63°
2026-05-04 14:44 29.27243 111.41544 35132 ft 526 kts 63°
2026-05-04 14:44 29.29947 111.49310 35131 ft 526 kts 63°
2026-05-04 14:45 29.32650 111.57092 35133 ft 527 kts 63°
2026-05-04 14:45 29.35457 111.64762 35130 ft 520 kts 56°
2026-05-04 14:46 29.39257 111.71716 35104 ft 516 kts 50°
2026-05-04 14:46 29.43196 111.78582 35105 ft 513 kts 50°
2026-05-04 14:47 29.47123 111.85440 35106 ft 516 kts 50°
2026-05-04 14:47 29.51057 111.92331 35110 ft 515 kts 50°
2026-05-04 14:48 29.54961 111.99182 35101 ft 514 kts 50°
2026-05-04 14:48 29.58878 112.06065 35111 ft 516 kts 50°
2026-05-04 14:49 29.62775 112.12933 35109 ft 512 kts 50°
2026-05-04 14:49 29.66664 112.19793 35116 ft 516 kts 50°
2026-05-04 14:50 29.70553 112.26668 35111 ft 512 kts 50°
2026-05-04 14:50 29.74433 112.33536 35120 ft 517 kts 51°
2026-05-04 14:51 29.78298 112.40432 35114 ft 513 kts 51°
2026-05-04 14:51 29.82174 112.47360 35110 ft 514 kts 51°
2026-05-04 14:52 29.86060 112.54314 35123 ft 516 kts 51°
2026-05-04 14:52 29.89901 112.61203 35120 ft 512 kts 51°
2026-05-04 14:53 29.93740 112.68096 35102 ft 513 kts 51°
2026-05-04 14:53 29.97616 112.75068 35107 ft 516 kts 52°
2026-05-04 14:54 30.01449 112.81976 35108 ft 513 kts 51°
2026-05-04 14:54 30.05299 112.88927 35109 ft 514 kts 52°
2026-05-04 14:55 30.09123 112.95841 35116 ft 512 kts 52°
2026-05-04 14:55 30.12936 113.02747 35123 ft 514 kts 52°
2026-05-04 14:56 30.16777 113.09717 35123 ft 512 kts 52°
2026-05-04 14:56 30.20567 113.16605 35117 ft 514 kts 52°
2026-05-04 14:57 30.24417 113.23531 35121 ft 513 kts 51°
2026-05-04 14:57 30.28309 113.30452 35120 ft 513 kts 51°
2026-05-04 14:58 30.32154 113.37311 35115 ft 510 kts 51°
2026-05-04 14:58 30.35375 113.43066 35123 ft 513 kts 51°
2026-05-04 14:59 30.39845 113.51070 35126 ft 510 kts 52°
2026-05-04 15:00 30.45611 113.61419 35120 ft 510 kts 52°
2026-05-04 15:00 30.49450 113.68325 35111 ft 512 kts 52°
2026-05-04 15:01 30.55225 113.78739 35141 ft 511 kts 52°
2026-05-04 15:01 30.59034 113.85622 35129 ft 509 kts 52°
2026-05-04 15:02 30.62870 113.92560 35148 ft 510 kts 52°
2026-05-04 15:02 30.66709 113.99514 35135 ft 511 kts 53°
2026-05-04 15:03 30.70528 114.06442 35142 ft 510 kts 52°
2026-05-04 15:03 30.74357 114.13398 35120 ft 510 kts 52°
2026-05-04 15:04 30.78063 114.20435 35130 ft 514 kts 60°
2026-05-04 15:04 30.80776 114.28124 35138 ft 516 kts 65°
2026-05-04 15:05 30.83317 114.35938 35140 ft 519 kts 66°
2026-05-04 15:05 30.85836 114.43783 35149 ft 517 kts 66°
2026-05-04 15:06 30.88364 114.51611 35151 ft 517 kts 66°
2026-05-04 15:07 30.92153 114.63296 35166 ft 517 kts 66°
2026-05-04 15:07 30.94680 114.71107 35133 ft 517 kts 67°
2026-05-04 15:08 30.97214 114.78960 35010 ft 517 kts 66°
2026-05-04 15:08 30.98469 114.82855 35180 ft 521 kts 66°
2026-05-04 15:08 30.99744 114.86816 35135 ft 519 kts 67°
2026-05-04 15:09 31.02228 114.94551 35367 ft 520 kts 66°
2026-05-04 15:09 31.03461 114.98399 35210 ft 521 kts 66°
2026-05-04 15:09 31.04716 115.02325 35140 ft 515 kts 66°
2026-05-04 15:10 31.08359 115.13733 35152 ft 516 kts 67°
2026-05-04 15:11 31.12008 115.25220 35182 ft 514 kts 67°
2026-05-04 15:11 31.14409 115.32751 35185 ft 517 kts 66°
2026-05-04 15:12 31.16882 115.40371 35198 ft 514 kts 66°
2026-05-04 15:12 31.19364 115.48038 35206 ft 515 kts 66°
2026-05-04 15:13 31.21806 115.55604 35214 ft 515 kts 66°
2026-05-04 15:13 31.24278 115.63284 35229 ft 513 kts 66°
2026-05-04 15:14 31.26769 115.71045 35236 ft 516 kts 66°
2026-05-04 15:14 31.29281 115.78888 35248 ft 516 kts 67°
2026-05-04 15:15 31.31776 115.86708 34975 ft 516 kts 67°
2026-05-04 15:15 31.33036 115.90638 35120 ft 516 kts 66°
2026-05-04 15:15 31.34318 115.94563 35213 ft 521 kts 66°
2026-05-04 15:16 31.36868 116.02377 35069 ft 501 kts 66°
2026-05-04 15:16 31.38089 116.06130 34932 ft 488 kts 66°
2026-05-04 15:16 31.40433 116.13342 34454 ft 472 kts 66°
2026-05-04 15:17 31.41600 116.16935 33969 ft 471 kts 66°
2026-05-04 15:17 31.43905 116.24049 33070 ft 466 kts 66°
2026-05-04 15:17 31.45042 116.27565 32751 ft 460 kts 66°
2026-05-04 15:18 31.46158 116.31023 32436 ft 453 kts 66°
2026-05-04 15:18 31.47259 116.34436 32081 ft 449 kts 66°
2026-05-04 15:18 31.48359 116.37849 31754 ft 443 kts 66°
2026-05-04 15:19 31.50496 116.44492 31013 ft 434 kts 66°
2026-05-04 15:19 31.51550 116.47774 30674 ft 430 kts 67°
2026-05-04 15:19 31.53632 116.54264 30002 ft 420 kts 66°
2026-05-04 15:20 31.54646 116.57431 29626 ft 415 kts 66°
2026-05-04 15:20 31.55643 116.60547 29142 ft 414 kts 67°
2026-05-04 15:20 31.56654 116.63709 28703 ft 411 kts 66°
2026-05-04 15:20 31.57651 116.66833 28321 ft 406 kts 67°
2026-05-04 15:21 31.58624 116.69884 27858 ft 404 kts 68°
2026-05-04 15:21 31.59613 116.72987 27407 ft 401 kts 67°
2026-05-04 15:21 31.61539 116.79037 26525 ft 395 kts 68°
2026-05-04 15:22 31.62497 116.82056 26077 ft 392 kts 67°
2026-05-04 15:22 31.63447 116.85046 25656 ft 389 kts 67°
2026-05-04 15:22 31.65308 116.90916 24808 ft 383 kts 67°
2026-05-04 15:23 31.66223 116.93810 24360 ft 380 kts 67°
2026-05-04 15:23 31.67146 116.96725 23935 ft 377 kts 67°
2026-05-04 15:23 31.68053 116.99598 23494 ft 374 kts 67°
2026-05-04 15:23 31.68943 117.02426 23071 ft 371 kts 67°
2026-05-04 15:24 31.70691 117.08079 22215 ft 366 kts 67°
2026-05-04 15:24 31.72400 117.13613 21390 ft 361 kts 67°
2026-05-04 15:25 31.73249 117.16362 20968 ft 358 kts 67°
2026-05-04 15:25 31.74102 117.19130 20557 ft 355 kts 67°
2026-05-04 15:25 31.74937 117.21837 20173 ft 352 kts 67°
2026-05-04 15:26 31.76434 117.27254 19329 ft 351 kts 79°
2026-05-04 15:26 31.76407 117.30104 18866 ft 354 kts 99°
2026-05-04 15:26 31.74327 117.35268 18061 ft 350 kts 123°
2026-05-04 15:27 31.72952 117.37602 17747 ft 345 kts 125°
2026-05-04 15:27 31.70212 117.42120 17015 ft 340 kts 125°
2026-05-04 15:28 31.67479 117.46608 16328 ft 333 kts 125°
2026-05-04 15:28 31.66132 117.48819 15987 ft 330 kts 125°
2026-05-04 15:28 31.63485 117.53159 15300 ft 325 kts 125°
2026-05-04 15:29 31.62179 117.55309 14944 ft 323 kts 123°
2026-05-04 15:30 31.61602 117.65284 13547 ft 308 kts 82°
2026-05-04 15:30 31.62337 117.72688 12544 ft 301 kts 81°
2026-05-04 15:31 31.62803 117.77428 11952 ft 295 kts 82°
2026-05-04 15:31 31.63034 117.79796 11853 ft 290 kts 81°
2026-05-04 15:32 31.63726 117.86876 11793 ft 296 kts 82°
2026-05-04 15:32 31.64184 117.91600 11760 ft 290 kts 81°
2026-05-04 15:33 31.64641 117.96323 11350 ft 294 kts 82°
2026-05-04 15:34 31.65321 118.03391 10527 ft 290 kts 81°
2026-05-04 15:34 31.65541 118.05689 10182 ft 287 kts 82°
2026-05-04 15:34 31.65966 118.10145 9529 ft 266 kts 81°
2026-05-04 15:35 31.66365 118.14334 8764 ft 255 kts 81°
2026-05-04 15:35 31.66559 118.16369 8377 ft 251 kts 82°
2026-05-04 15:35 31.66674 118.18393 7985 ft 248 kts 87°
2026-05-04 15:36 31.66690 118.22395 7253 ft 246 kts 89°
2026-05-04 15:36 31.66696 118.24434 6855 ft 253 kts 89°
2026-05-04 15:36 31.66704 118.26507 6457 ft 259 kts 89°
2026-05-04 15:37 31.66711 118.28635 6059 ft 264 kts 89°
2026-05-04 15:37 31.66718 118.30813 5653 ft 268 kts 90°
2026-05-04 15:37 31.66725 118.32989 5259 ft 272 kts 90°
2026-05-04 15:37 31.66732 118.35226 4859 ft 275 kts 90°
2026-05-04 15:38 31.66738 118.37472 4459 ft 277 kts 90°
2026-05-04 15:38 31.66745 118.39706 4008 ft 271 kts 91°
2026-05-04 15:38 31.66613 118.41801 3892 ft 249 kts 107°
2026-05-04 15:38 31.66079 118.43555 3890 ft 235 kts 114°
2026-05-04 15:39 31.65488 118.45138 3894 ft 227 kts 116°
2026-05-04 15:39 31.64996 118.46508 3914 ft 229 kts 106°
2026-05-04 15:39 31.64953 118.50109 3894 ft 204 kts 89°
2026-05-04 15:40 31.65004 118.51746 3893 ft 189 kts 89°
2026-05-04 15:40 31.65049 118.53229 3876 ft 179 kts 89°
2026-05-04 15:40 31.65094 118.54655 3895 ft 170 kts 89°
2026-05-04 15:40 31.65136 118.56042 3897 ft 171 kts 90°
2026-05-04 15:41 31.65179 118.57434 3898 ft 170 kts 89°
2026-05-04 15:41 31.65222 118.58813 3900 ft 170 kts 90°
2026-05-04 15:41 31.65265 118.60205 3899 ft 171 kts 90°
2026-05-04 15:41 31.65308 118.61600 3898 ft 171 kts 89°
2026-05-04 15:42 31.65350 118.63000 3898 ft 171 kts 89°
2026-05-04 15:42 31.65393 118.64381 3900 ft 171 kts 89°
2026-05-04 15:42 31.65437 118.65785 3832 ft 172 kts 90°
2026-05-04 15:42 31.65480 118.67178 3616 ft 171 kts 90°
2026-05-04 15:43 31.65525 118.68569 3323 ft 171 kts 90°
2026-05-04 15:43 31.65600 118.69933 2988 ft 169 kts 80°
2026-05-04 15:43 31.66091 118.71182 2750 ft 170 kts 60°
2026-05-04 15:43 31.66751 118.72349 2527 ft 171 kts 59°
2026-05-04 15:44 31.67394 118.73518 2270 ft 171 kts 61°
2026-05-04 15:44 31.68020 118.74683 2018 ft 169 kts 61°
2026-05-04 15:44 31.68651 118.75855 1811 ft 168 kts 61°
2026-05-04 15:44 31.69269 118.77000 1554 ft 166 kts 61°
2026-05-04 15:45 31.69889 118.78153 1303 ft 164 kts 60°
2026-05-04 15:45 31.70499 118.79285 1103 ft 163 kts 60°
2026-05-04 15:45 31.71101 118.80405 905 ft 161 kts 60°
2026-05-04 15:45 31.71698 118.81516 676 ft 160 kts 60°
2026-05-04 15:46 31.72288 118.82619 454 ft 160 kts 60°
2026-05-04 15:46 31.72874 118.83691 258 ft 157 kts 59°
2026-05-04 15:46 31.73471 118.84782 82 ft 157 kts 59°
2026-05-04 15:46 31.73978 118.85756 64 ft 111 kts 56°
2026-05-04 15:47 31.74226 118.86198 63 ft 31 kts 59°
2026-05-04 15:47 31.74333 118.86430 63 ft 33 kts 68°
2026-05-04 15:47 31.74367 118.86616 63 ft 18 kts 84°
2026-05-04 15:47 31.74369 118.86656 63 ft 1 kts 88°
2026-05-04 15:48 31.74370 118.86711 63 ft 7 kts 88°
2026-05-04 15:49 31.74372 118.86794 63 ft 12 kts 88°
2026-05-04 15:49 31.74348 118.86905 63 ft 16 kts 148°
2026-05-04 15:49 31.74260 118.86877 63 ft 17 kts 229°
2026-05-04 15:49 31.74195 118.86739 63 ft 21 kts 243°
2026-05-04 15:50 31.74112 118.86580 63 ft 24 kts 237°
2026-05-04 15:50 31.74011 118.86404 63 ft 22 kts 236°
2026-05-04 15:50 31.73934 118.86267 63 ft 22 kts 238°
2026-05-04 15:50 31.73855 118.86119 63 ft 20 kts 238°
2026-05-04 15:51 31.73774 118.85967 63 ft 21 kts 238°
2026-05-04 15:51 31.73746 118.85925 63 ft 1 kts 216°
2026-05-04 15:51 31.73721 118.85916 63 ft 6 kts 183°
2026-05-04 15:51 31.73662 118.85944 63 ft 12 kts 146°
2026-05-04 15:52 31.73576 118.86001 63 ft 16 kts 149°
2026-05-04 15:52 31.73464 118.86080 63 ft 20 kts 148°
2026-05-04 15:52 31.73330 118.86179 63 ft 24 kts 148°
2026-05-04 15:52 31.73206 118.86270 63 ft 21 kts 147°
2026-05-04 15:53 31.73072 118.86369 63 ft 24 kts 148°
2026-05-04 15:53 31.72953 118.86455 63 ft 15 kts 148°
2026-05-04 15:53 31.72853 118.86527 63 ft 19 kts 148°
2026-05-04 15:53 31.72744 118.86635 63 ft 21 kts 103°
2026-05-04 15:54 31.72801 118.86779 63 ft 14 kts 58°
2026-05-04 15:54 31.72855 118.86887 63 ft 10 kts 58°
2026-05-04 15:54 31.72876 118.86926 63 ft 7 kts 58°
2026-05-04 15:54 31.72894 118.86958 63 ft 10 kts 58°
2026-05-04 15:55 31.72917 118.87001 63 ft 13 kts 57°
2026-05-04 15:55 31.72954 118.87037 63 ft 14 kts 14°
2026-05-04 15:55 31.72990 118.87034 63 ft 3 kts 338°
2026-05-04 15:55 31.73005 118.87026 63 ft 6 kts 334°
2026-05-04 15:56 31.73028 118.87013 63 ft 7 kts 332°
2026-05-04 15:56 31.73045 118.87002 63 ft 1 kts 330°
2026-05-04 15:56 31.73229 118.86878 74 ft 1 kts 329°
2026-05-04 15:56 31.73229 118.86877 73 ft 0 kts 328°
2026-05-04 15:57 31.73230 118.86877 74 ft 0 kts 330°
2026-05-04 15:59 31.73229 118.86877 74 ft 0 kts 331°
2026-05-04 16:01 31.73229 118.86878 74 ft 0 kts 330°